User: anonymous   Login
Location: Cornospital
(48.0620°N, 3.3837°W)
Time: 21:06:56
(UTC+00:00)
Language:

Cosmos 1674 - Orbit

View from above orbital plane
View from above orbital plane
View from above satellite
View from above satellite

Ground track
Ground track

The orbit data is extracted from the following two-line orbital elements,

1 15944U 85069A   21271.29610735  .00001638  00000-0  72916-4 0  9994
2 15944  82.5046 117.3929 0018161  81.4151 278.9141 15.20605867975259
Epoch (UTC): 28 September 2021 07:06:23
Eccentricity: 0.0018161
inclination: 82.5046°
perigee height: 491 km
apogee height: 516 km
right ascension of ascending node: 117.3929°
argument of perigee: 81.4151°
revolutions per day: 15.20605867
mean anomaly at epoch: 278.9141°
orbit number at epoch: 97525

The dashed part of the orbit path shows where the satellite is in the earth's shadow,  

DLR